Regional Weather Roundup
Issued by NWS Jackson, KY

Home | Current Version | Previous Version | Text Only | Print | Product List | Glossary Off
Versions: 1 2 3 4 5 6 7 8 9 10 11 12 13 14 15 16 17 18 19 20 21 22 23 24 25 26 27 28 29 30 31 32 33 34 35 36 37 38 39 40 41 42 43 44 45 46 47 48 49 50

000
ASUS43 KJKL 262210
RWRJKL

EAST KENTUCKY HOURLY WEATHER ROUNDUP
NATIONAL WEATHER SERVICE JACKSON KY
600 PM EDT THU MAR 26 2015

NOTE: "FAIR" INDICATES FEW OR NO CLOUDS BELOW 12,000 FEET WITH
NO SIGNIFICANT WEATHER AND/OR OBSTRUCTIONS TO VISIBILITY.

* THESE REPORTS ARE NOT UNDER NWS QUALITY CONTROL AND MAY NOT
  REPORT WEATHER SUCH AS PRECIPITATION AND FOG.

KYZ079-080-083-085-087-088-110-112-115-119-120-262300
...EASTERN KENTUCKY...

CITY           SKY/WX    TMP DP  RH WIND       PRES   REMARKS
JACKSON        LGT RAIN  45  42  89 VRB6      29.84R FOG
LONDON         RAIN      47  42  83 N9        29.85R
SOMERSET*      CLOUDY    45  45 100 N10G17    29.88S
MONTICELLO*    CLOUDY    48  46  93 NW10      29.90R FOG
MIDDLESBORO*   CLOUDY    56  52  86 N9        29.81R
HAZARD APT*    RAIN      48  46  93 N6        29.84R
BLACK MTN*       N/A     46  46 100 N6          N/A
PIKEVILLE APT* RAIN      48  46  93 N8        29.80S
BIG SANDY*     DRIZZLE   47  46  93 N5        29.83R
MOREHEAD APT*  CLOUDY    46  43  87 NW7G14    29.89R FOG
$$

KYZ035-036-041-042-044-050-067-078-099-262300
...CENTRAL KENTUCKY...

CITY           SKY/WX    TMP DP  RH WIND       PRES   REMARKS
MT STERLING*   DRIZZLE   43  43 100 N10G18    29.90R
FLEMING/MASON* DRIZZLE   45  41  87 NW9G16    29.90R
DANVILLE*      RAIN      43  41  93 N15       29.91R
RICHMOND*      CLOUDY    45  41  87 NW12      29.88R
LEXINGTON      LGT RAIN  44  42  93 NW13      29.91R FOG
FRANKFORT      CLOUDY    45  41  86 NW9       29.91R
$$

KYZ091>093-OHZ055-061-077-WVZ005-015-034-035-042-262300
...SOUTHERN OHIO/WEST VIRGINIA...

CITY           SKY/WX    TMP DP  RH WIND       PRES   REMARKS
COVINGTON      CLOUDY    43  36  76 NW12      29.90R
COLUMBUS       CLOUDY    41  37  87 NW12      29.87R
DAYTON         CLOUDY    41  35  79 NW13      29.91R
WILMINGTON     CLOUDY    41  36  82 NW14      29.88R
HUNTINGTON     CLOUDY    46  42  86 NW9       29.84R
CHARLESTON     LGT RAIN  47  44  90 NW7       29.82R
PINEVILLE*     RAIN      55  55  97 MISG      29.81R
BECKLEY        LGT RAIN  51  48  89 NW13      29.78R FOG
BLUEFIELD      LGT RAIN  57  51  80 W9G17     29.77R
$$

VAZ002-007-008-TNZ017-027-036-066-071-262300
...SOUTHWEST VIRGINIA/EAST TENNESSEE...

CITY           SKY/WX    TMP DP  RH WIND       PRES   REMARKS
WISE*          TSTM      54  54 100 N9G21     29.79R
JONESVILLE*    RAIN      59  59 100 NW10G16   29.78R
ABINGDON*      CLOUDY    71  48  43 W12G22    29.72F
BRISTOL        CLOUDY    73  48  41 SW16      29.70F
KNOXVILLE      CLOUDY    73  49  42 SW18      29.70F
OAK RIDGE      LGT RAIN  63  59  87 W7        29.76R FOG
CROSSVILLE     RAIN      54  51  90 NW8       29.81R FOG
NASHVILLE      CLOUDY    46  43  89 N13G21    29.92R
$$

...KEY TO REMARKS...
VSB - VISIBILITY IN MILES
WCI - WIND CHILL INDEX
HX  - HEAT INDEX

$$


USA.gov is the U.S. government's official web portal to all federal, state and local government web resources and services.